This is the latest recevied weather packets stored in our database for station/object KF7SOJ. If no packets are shown the sender has not sent any weather packets the latest 10 day(s).
| Time | Temp. | Humidity | Pressure | Rain* | Wind** | Luminosity | Snow |
|---|---|---|---|---|---|---|---|
| 1788436915 | 15.56° C | 53% | 926.5 hPa | 0 mm | - | 0 W/m² | - |
| 1788436613 | 15.56° C | 52% | 926.7 hPa | 0 mm | - | 0 W/m² | - |
| 1788436309 | 15.56° C | 50% | 926.6 hPa | 0 mm | - | 0 W/m² | - |
| 1788436009 | 15.56° C | 49% | 926.7 hPa | 0 mm | - | 0 W/m² | - |
| 1788435704 | 15.56° C | 49% | 926.9 hPa | 0 mm | - | 0 W/m² | - |
| 1788435400 | 15.56° C | 49% | 926.5 hPa | 0 mm | - | 0 W/m² | - |
| 1788435096 | 16.11° C | 49% | 926.6 hPa | 0 mm | - | 0 W/m² | - |
| 1788434792 | 16.11° C | 48% | 926.5 hPa | 0 mm | - | 0 W/m² | - |
| 1788434491 | 16.11° C | 48% | 926.8 hPa | 0 mm | - | 0 W/m² | - |
| 1788434191 | 16.11° C | 48% | 926.6 hPa | 0 mm | - | 0 W/m² | - |
| 1788433886 | 16.11° C | 48% | 926.9 hPa | 0 mm | - | 0 W/m² | - |
| 1788433582 | 15.56° C | 50% | 926.8 hPa | 0 mm | - | 0 W/m² | - |
| 1788433278 | 15° C | 51% | 926.8 hPa | 0 mm | - | 0 W/m² | - |
| 1788432973 | 15° C | 55% | 927 hPa | 0 mm | - | 0 W/m² | - |
| 1788432668 | 15° C | 56% | 926.8 hPa | 0 mm | - | 0 W/m² | - |
| 1788432367 | 15° C | 54% | 926.6 hPa | 0 mm | - | 0 W/m² | - |
| 1788432058 | 15.56° C | 53% | 926.8 hPa | 0 mm | - | 0 W/m² | - |
| 1788431753 | 15.56° C | 52% | 926.8 hPa | 0 mm | - | 0 W/m² | - |
| 1788431449 | 15.56° C | 51% | 926.6 hPa | 0 mm | - | 0 W/m² | - |
| 1788431145 | 15.56° C | 51% | 926.7 hPa | 0 mm | - | 0 W/m² | - |
| 1788430843 | 15.56° C | 49% | 926.7 hPa | 0 mm | - | 0 W/m² | - |
| 1788430538 | 15.56° C | 51% | 926.6 hPa | 0 mm | - | 0 W/m² | - |
| 1788430261 | 16.11° C | 49% | 926.9 hPa | 0 mm | - | 0 W/m² | - |
| 1788429933 | 16.11° C | 49% | 926.7 hPa | 0 mm | - | 0 W/m² | - |
| 1788429633 | 15.56° C | 50% | 926.7 hPa | 0 mm | - | 0 W/m² | - |
* Rain latest hour (hover to see other rain measurements)
** Current wind speed in m/s (hover to see current wind gust speed)